weather.gov     
National Weather Service

Terminal Aerodrome Forecast
NWS Homepage
This page is being discontinued on March 12, 2014.
The same data is available at this site. Please update your bookmarks.
Thank you, and we apologize for the inconvenience.
Please send an email to SR-SRH.Webmaster@noaa.gov with any concerns.


Current Version
Previous Version:    01  02  03  04  05  06  07  08  09  10  11  12  13  14  15  16  17  18  19  20  21  22  23  
[Printable]
562
FTUS45 KSLC 242331
TAFENV
TAF
KENV 242331Z 2500/2524 VRB04KT P6SM SKC
     FM251700 13007KT P6SM SKC
     FM252000 18010G16KT P6SM FEW080
      AMD LTD TO CLD VIS AND WIND=


562
FTUS45 KSLC 242331
TAFENV
TAF
KENV 242331Z 2500/2524 VRB04KT P6SM SKC
     FM251700 13007KT P6SM SKC
     FM252000 18010G16KT P6SM FEW080
      AMD LTD TO CLD VIS AND WIND=




U.S. Dept. of Commerce
NOAA National Weather Service
1325 East West Highway
Silver Spring, MD 20910
E-mail: w-nws.webmaster@noaa.gov
Page last modified: May 16, 2007
NATIONAL WEATHER SERVICE: for Safety, for Work, for Fun - FOR LIFE